Location: Unspecified
(0.0000°N, 0.0000°E)
Time: 05:56:56
(UTC+00:00)

DX 1 - Pass Details

Date: 08 July 2020
Orbit: 619 x 630 km, 98.5° (Epoch: 13 August)

Event Time Altitude Azimuth Distance (km) Brightness Sun altitude
Rises 04:23:25 0° 129° (SE) 2,904 ? -23.4°
Reaches altitude 10° 04:27:33 10° 90° (E) 1,990 ? -22.5°
Maximum altitude 04:28:27 11° 78° (ENE) 1,950 ? -22.2°
Drops below altitude 10° 04:29:21 10° 65° (ENE) 1,986 ? -22.0°
Sets 04:33:26 0° 26° (NNE) 2,884 ? -21.1°
